When you browse on this site, cookies collect data to enhance your experience and personalize the content and advertising you see.
Visit our Privacy Policy to learn more. By continuing to use the site, you agree to this use of cookies and data.
  • In United Kingdom
  • List of Countries
  • For 7 days
  • Water Temperature
  • Satellite Maps
  • Weather Map
  • Weather Widgets
  • user-avatar
    Login

    Hourly Weather Goranboy

    Today, 19 July, Friday

    Time Temperature Precipitation Wind Pressure Humidity
    00:00 +29°C° 0 mm 4 mps 742 mmHg 48%
    01:00 +28°C° 0 mm 3 mps 743 mmHg 50%
    02:00 +28°C° 0 mm 2 mps 743 mmHg 53%
    03:00 +27°C° 0 mm 1 mps 743 mmHg 55%
    04:00 +27°C° 0 mm 2 mps 743 mmHg 56%
    05:00 +27°C° 0 mm 2 mps 744 mmHg 58%
    06:00 +28°C° 0 mm 2 mps 744 mmHg 59%
    07:00 +29°C° 0 mm 2 mps 745 mmHg 55%
    08:00 +30°C° 0 mm 2 mps 745 mmHg 51%
    09:00 +32°C° 0 mm 2 mps 745 mmHg 47%
    10:00 +34°C° 0 mm 3 mps 745 mmHg 44%
    11:00 +35°C° 0 mm 3 mps 745 mmHg 41%
    12:00 +37°C° 0 mm 3 mps 745 mmHg 37%
    13:00 +37°C° 0 mm 3 mps 744 mmHg 35%
    14:00 +38°C° 0 mm 4 mps 744 mmHg 33%
    15:00 +40°C° 0 mm 4 mps 744 mmHg 31%
    16:00 +40°C° 0 mm 4 mps 744 mmHg 32%
    17:00 +38°C° 0 mm 4 mps 744 mmHg 32%
    18:00 +39°C° 0 mm 5 mps 745 mmHg 32%
    19:00 +36°C° 0 mm 5 mps 745 mmHg 36%
    20:00 +34°C° 0 mm 5 mps 746 mmHg 39%
    21:00 +33°C° 0 mm 6 mps 746 mmHg 43%
    22:00 +32°C° 0 mm 5 mps 746 mmHg 45%
    23:00 +30°C° 0 mm 4 mps 747 mmHg 46%

    Tomorrow, 20 July, Saturday

    Time Temperature Precipitation Wind Pressure Humidity
    00:00 +30°C° 0 mm 3 mps 747 mmHg 48%
    01:00 +29°C° 0 mm 3 mps 747 mmHg 51%
    02:00 +28°C° 0 mm 2 mps 747 mmHg 54%
    03:00 +28°C° 0 mm 1 mps 747 mmHg 57%
    04:00 +28°C° 0 mm 2 mps 747 mmHg 56%
    05:00 +28°C° 0 mm 2 mps 747 mmHg 56%
    06:00 +28°C° 0 mm 3 mps 748 mmHg 56%
    07:00 +30°C° 0 mm 3 mps 748 mmHg 53%
    08:00 +31°C° 0 mm 2 mps 748 mmHg 49%
    09:00 +32°C° 0 mm 2 mps 748 mmHg 45%
    10:00 +35°C° 0 mm 3 mps 748 mmHg 40%
    11:00 +37°C° 0 mm 4 mps 748 mmHg 35%
    12:00 +40°C° 0 mm 5 mps 748 mmHg 30%
    13:00 +40°C° 0 mm 5 mps 748 mmHg 28%
    14:00 +41°C° 0 mm 6 mps 747 mmHg 27%
    15:00 +41°C° 0 mm 7 mps 747 mmHg 25%
    16:00 +41°C° 0 mm 7 mps 747 mmHg 26%
    17:00 +40°C° 0 mm 7 mps 747 mmHg 27%
    18:00 +40°C° 0 mm 7 mps 748 mmHg 28%
    19:00 +38°C° 0 mm 7 mps 748 mmHg 30%
    20:00 +35°C° 0 mm 8 mps 749 mmHg 33%
    21:00 +34°C° 0 mm 8 mps 749 mmHg 36%
    22:00 +33°C° 0 mm 8 mps 750 mmHg 36%
    23:00 +33°C° 0 mm 7 mps 750 mmHg 37%

    Day after tomorrow, 21 July, Sunday

    Time Temperature Precipitation Wind Pressure Humidity
    00:00 +32°C° 0 mm 6 mps 750 mmHg 37%
    01:00 +30°C° 0 mm 6 mps 750 mmHg 39%
    02:00 +30°C° 0 mm 6 mps 750 mmHg 40%
    03:00 +29°C° 0 mm 6 mps 749 mmHg 42%
    04:00 +29°C° 0 mm 6 mps 750 mmHg 41%
    05:00 +30°C° 0 mm 6 mps 750 mmHg 41%
    06:00 +30°C° 0 mm 6 mps 750 mmHg 41%
    07:00 +32°C° 0 mm 7 mps 750 mmHg 37%
    08:00 +34°C° 0 mm 7 mps 750 mmHg 34%
    09:00 +37°C° 0 mm 8 mps 749 mmHg 30%
    10:00 +38°C° 0 mm 8 mps 749 mmHg 29%
    11:00 +39°C° 0 mm 8 mps 749 mmHg 28%
    12:00 +40°C° 0 mm 8 mps 748 mmHg 27%
    13:00 +40°C° 0 mm 8 mps 748 mmHg 26%
    14:00 +41°C° 0 mm 8 mps 747 mmHg 25%
    15:00 +41°C° 0 mm 8 mps 746 mmHg 25%
    16:00 +41°C° 0 mm 7 mps 746 mmHg 25%
    17:00 +40°C° 0 mm 7 mps 746 mmHg 26%
    18:00 +40°C° 0 mm 6 mps 747 mmHg 27%
    19:00 +38°C° 0 mm 6 mps 747 mmHg 30%
    20:00 +36°C° 0 mm 6 mps 747 mmHg 32%
    21:00 +34°C° 0 mm 7 mps 748 mmHg 35%
    22:00 +33°C° 0 mm 6 mps 748 mmHg 38%
    23:00 +32°C° 0 mm 6 mps 748 mmHg 40%

    22 July, Monday

    Time Temperature Precipitation Wind Pressure Humidity
    00:00 +30°C° 0 mm 5 mps 747 mmHg 42%
    01:00 +30°C° 0 mm 4 mps 747 mmHg 44%
    02:00 +29°C° 0 mm 3 mps 747 mmHg 47%
    03:00 +28°C° 0 mm 3 mps 747 mmHg 49%
    04:00 +29°C° 0 mm 2 mps 747 mmHg 49%
    05:00 +29°C° 0 mm 1 mps 746 mmHg 49%
    06:00 +29°C° 0 mm 1 mps 746 mmHg 49%
    07:00 +31°C° 0 mm 1 mps 746 mmHg 45%
    08:00 +32°C° 0 mm 1 mps 746 mmHg 41%
    09:00 +34°C° 0 mm 1 mps 746 mmHg 37%
    10:00 +36°C° 0 mm 2 mps 745 mmHg 34%
    11:00 +38°C° 0 mm 2 mps 745 mmHg 31%
    12:00 +39°C° 0 mm 3 mps 745 mmHg 28%
    13:00 +40°C° 0 mm 3 mps 744 mmHg 27%
    14:00 +40°C° 0 mm 3 mps 744 mmHg 26%
    15:00 +42°C° 0 mm 4 mps 743 mmHg 25%
    16:00 +42°C° 0 mm 4 mps 743 mmHg 26%
    17:00 +41°C° 0 mm 4 mps 743 mmHg 26%
    18:00 +41°C° 0 mm 4 mps 743 mmHg 27%
    19:00 +39°C° 0 mm 5 mps 744 mmHg 30%
    20:00 +38°C° 0 mm 6 mps 744 mmHg 33%
    21:00 +35°C° 0 mm 7 mps 745 mmHg 36%
    22:00 +34°C° 0 mm 6 mps 745 mmHg 40%
    23:00 +33°C° 0 mm 5 mps 745 mmHg 43%

    23 July, Tuesday

    Time Temperature Precipitation Wind Pressure Humidity
    00:00 +32°C° 0 mm 5 mps 745 mmHg 47%
    01:00 +30°C° 0 mm 4 mps 745 mmHg 50%
    02:00 +29°C° 0 mm 3 mps 744 mmHg 53%
    03:00 +29°C° 0 mm 2 mps 744 mmHg 56%
    04:00 +29°C° 0 mm 2 mps 745 mmHg 56%
    05:00 +29°C° 0 mm 2 mps 745 mmHg 56%
    06:00 +29°C° 0 mm 2 mps 745 mmHg 57%
    07:00 +30°C° 0 mm 2 mps 745 mmHg 51%
    08:00 +32°C° 0 mm 2 mps 745 mmHg 45%
    09:00 +35°C° 0 mm 2 mps 744 mmHg 39%
    10:00 +36°C° 0 mm 4 mps 744 mmHg 35%
    11:00 +39°C° 0 mm 6 mps 744 mmHg 31%
    12:00 +40°C° 0 mm 7 mps 743 mmHg 27%
    13:00 +40°C° 0 mm 8 mps 743 mmHg 27%
    14:00 +41°C° 0 mm 8 mps 742 mmHg 27%
    15:00 +41°C° 0 mm 8 mps 742 mmHg 28%
    16:00 +40°C° 0 mm 8 mps 742 mmHg 29%
    17:00 +40°C° 0 mm 8 mps 742 mmHg 30%
    18:00 +39°C° 0 mm 8 mps 742 mmHg 31%
    19:00 +36°C° 0 mm 7 mps 742 mmHg 34%
    20:00 +35°C° 0 mm 7 mps 743 mmHg 37%
    21:00 +33°C° 0 mm 6 mps 743 mmHg 41%
    22:00 +32°C° 0 mm 5 mps 743 mmHg 42%
    23:00 +32°C° 0 mm 5 mps 743 mmHg 43%

    24 July, Wednesday

    Time Temperature Precipitation Wind Pressure Humidity
    00:00 +30°C° 0 mm 4 mps 743 mmHg 45%
    01:00 +29°C° 0 mm 3 mps 743 mmHg 46%
    02:00 +28°C° 0 mm 3 mps 743 mmHg 48%
    03:00 +28°C° 0 mm 3 mps 743 mmHg 50%
    04:00 +28°C° 0 mm 2 mps 743 mmHg 50%
    05:00 +28°C° 0 mm 2 mps 743 mmHg 50%
    06:00 +28°C° 0 mm 1 mps 743 mmHg 50%
    07:00 +30°C° 0 mm 1 mps 743 mmHg 46%
    08:00 +32°C° 0 mm 1 mps 742 mmHg 43%
    09:00 +33°C° 0 mm 1 mps 742 mmHg 39%
    10:00 +35°C° 0 mm 1 mps 742 mmHg 36%
    11:00 +36°C° 0 mm 1 mps 742 mmHg 32%
    12:00 +39°C° 0 mm 1 mps 741 mmHg 28%
    13:00 +39°C° 0 mm 2 mps 741 mmHg 27%
    14:00 +40°C° 0 mm 2 mps 740 mmHg 26%
    15:00 +41°C° 0 mm 2 mps 740 mmHg 25%
    16:00 +41°C° 0 mm 2 mps 740 mmHg 25%
    17:00 +40°C° 0 mm 2 mps 740 mmHg 25%
    18:00 +40°C° 0 mm 2 mps 740 mmHg 26%
    19:00 +38°C° 0 mm 3 mps 741 mmHg 29%
    20:00 +36°C° 0 mm 4 mps 741 mmHg 33%
    21:00 +34°C° 0 mm 5 mps 742 mmHg 36%
    22:00 +33°C° 0 mm 5 mps 742 mmHg 39%
    23:00 +32°C° 0 mm 4 mps 742 mmHg 41%
    Show more